Regional Weather Roundup
Issued by NWS

Home | Current Version | Previous Version | Text Only | Print | Product List | Glossary On
Versions: 1 2 3 4 5 6 7 8 9 10 11 12 13 14 15 16 17 18 19 20 21 22 23 24 25 26 27
000
ASUS45 KREV 012010
RWRNV
NEVADA REGIONAL WEATHER ROUNDUP
NATIONAL WEATHER SERVICE RENO NV
100 PM PDT SAT OCT 01 2016

NOTE: "FAIR" INDICATES FEW OR NO CLOUDS BELOW 12,000 FEET WITH NO
SIGNIFICANT WEATHER AND/OR OBSTRUCTIONS TO VISIBILITY.

NVZ001-003-004-012100-
WESTERN NEVADA

CITY           SKY/WX    TMP DP  RH WIND       PRES   REMARKS
RENO           MOSUNNY   70  20  15 N7        30.05F
CARSON CITY    FAIR      72  16  12 W17G23    30.07F
MINDEN         FAIR      72  16  12 SW9       30.06F
PYRAMID LAKE     N/A     64 N/A N/A N8          N/A
FALLON         MOSUNNY   73  30  20 VRB5      30.02F
LOVELOCK       SUNNY     71  18  13 VRB3      30.05F
HAWTHORNE        N/A    N/A N/A N/A MISG        N/A
$$

NVZ002-CAZ072-073-012100-
NORTHERN AND CENTRAL SIERRA

CITY           SKY/WX    TMP DP  RH WIND       PRES   REMARKS
S. LAKE TAHOE  SUNNY     61  21  21 S12G23    30.14S
TRUCKEE        SUNNY     63  19  19 SW16      30.14F
SQUAW VLY 8000 NOT AVBL
SUSANVILLE     SUNNY     66  12  12 W12       30.08F
MAMMOTH LAKES  FAIR      67  17  14 S9G20     30.17F
BRIDGEPORT       N/A     63  15  15 SW13G31   30.12F
$$

NVZ030-031-036-012100-
NORTHERN NEVADA

CITY           SKY/WX    TMP DP  RH WIND       PRES   REMARKS
ELKO           MOSUNNY   73  28  18 W13G20    30.05F
WINNEMUCCA     SUNNY     69   6   8 NW12G23   30.07F
WENDOVER       MOSUNNY   81  37  21 SW16G24   29.97F
$$

NVZ035-037-012100-
CENTRAL NEVADA

CITY           SKY/WX    TMP DP  RH WIND       PRES   REMARKS
ELY            PTSUNNY   71  34  25 S18       30.10F
EUREKA           N/A     71  32  23 W10       30.06F
$$

NVZ013-014-012100-
SOUTH CENTRAL NEVADA

CITY           SKY/WX    TMP DP  RH WIND       PRES   REMARKS
TONOPAH        SUNNY     75  29  18 SW15      30.07F
$$

NVZ017-020-022-012100-
SOUTHERN NEVADA

CITY           SKY/WX    TMP DP  RH WIND       PRES   REMARKS
LAS VEGAS      MOSUNNY   89  39  17 SW10G23   29.95F
N. LAS VEGAS   SUNNY     89  43  20 SW17G26   29.94F
NELLIS AFB     SUNNY     90  47  22 S17G29    29.93F
HENDERSON      SUNNY     89  45  21 SW20G26   29.98F
MERCURY        SUNNY     85  38  18 SW21G36   29.99F
$$




USA.gov is the U.S. government's official web portal to all federal, state and local government web resources and services.